SAS903 ESSA-KEWR

Flight info

Callsign SAS903
Flight time N/A
Altitude 36000
Route KOGAV DCT EGAGO DCT NOMGA DCT 65N000E/M082F360 66N010W 66N020W 65N030W/M082F380 64N040W 62N050W DCT SAVRY/N0478F380 N922A LAKES DCT TEALS DCT ULDON DCT MOFAT DCT ALB DCT HELON DCT FLOSI FLOSI4
Aircraft A333/H-SDE1E3FGHIJ3J4J5M1P2RVWXY/LB1D1

Departure

Time N/A
Airport Stockholm-Arlanda Airport (ESSA)

Arrival

Time 2026-05-07 17:15
Airport Newark Liberty International Airport (KEWR)
Time Latitude Longitude Altitude Speed Heading
2026-05-07 16:22 44.92161 -73.55196 37846 ft 438 kts 193°
2026-05-07 16:22 44.86312 -73.55894 37850 ft 436 kts 193°
2026-05-07 16:23 44.80263 -73.56618 37850 ft 436 kts 193°
2026-05-07 16:23 44.74216 -73.57340 37851 ft 436 kts 194°
2026-05-07 16:24 44.68179 -73.58058 37849 ft 435 kts 194°
2026-05-07 16:24 44.62158 -73.58773 37850 ft 434 kts 194°
2026-05-07 16:25 44.56130 -73.59487 37830 ft 434 kts 194°
2026-05-07 16:25 44.50137 -73.60192 37854 ft 431 kts 194°
2026-05-07 16:26 44.44177 -73.60895 37857 ft 429 kts 194°
2026-05-07 16:26 44.38221 -73.61600 37838 ft 429 kts 195°
2026-05-07 16:27 44.32319 -73.62293 37862 ft 428 kts 195°
2026-05-07 16:27 44.26391 -73.62988 37863 ft 427 kts 195°
2026-05-07 16:28 44.20468 -73.63685 37864 ft 427 kts 195°
2026-05-07 16:28 44.14541 -73.64378 37853 ft 427 kts 195°
2026-05-07 16:29 44.08605 -73.65070 37865 ft 428 kts 195°
2026-05-07 16:29 44.02669 -73.65760 37867 ft 428 kts 195°
2026-05-07 16:30 43.96727 -73.66451 37875 ft 428 kts 195°
2026-05-07 16:30 43.90786 -73.67142 37875 ft 428 kts 195°
2026-05-07 16:31 43.84845 -73.67827 37879 ft 428 kts 195°
2026-05-07 16:31 43.78899 -73.68505 37873 ft 429 kts 195°
2026-05-07 16:32 43.72947 -73.69192 37880 ft 429 kts 195°
2026-05-07 16:32 43.67032 -73.69872 37881 ft 430 kts 195°
2026-05-07 16:33 43.61074 -73.70556 37881 ft 430 kts 195°
2026-05-07 16:33 43.55114 -73.71239 37892 ft 430 kts 195°
2026-05-07 16:34 43.49147 -73.71921 37895 ft 430 kts 195°
2026-05-07 16:34 43.43186 -73.72600 37859 ft 429 kts 195°
2026-05-07 16:35 43.37235 -73.73276 37901 ft 428 kts 195°
2026-05-07 16:35 43.31294 -73.73953 37897 ft 429 kts 195°
2026-05-07 16:36 43.25343 -73.74629 37853 ft 429 kts 195°
2026-05-07 16:36 43.19404 -73.75300 37719 ft 428 kts 195°
2026-05-07 16:37 43.13601 -73.75940 37566 ft 408 kts 196°
2026-05-07 16:37 43.10815 -73.76252 37082 ft 407 kts 196°
2026-05-07 16:37 43.07993 -73.76578 36504 ft 408 kts 197°
2026-05-07 16:37 43.05154 -73.76905 35894 ft 410 kts 197°
2026-05-07 16:38 43.02304 -73.77229 35307 ft 412 kts 197°
2026-05-07 16:38 42.99440 -73.77555 34646 ft 415 kts 198°
2026-05-07 16:38 42.96555 -73.77881 33975 ft 417 kts 198°
2026-05-07 16:38 42.93646 -73.78209 33193 ft 420 kts 198°
2026-05-07 16:39 42.90736 -73.78534 32471 ft 420 kts 198°
2026-05-07 16:39 42.87820 -73.78859 31750 ft 421 kts 198°
2026-05-07 16:39 42.84901 -73.79185 30973 ft 421 kts 198°
2026-05-07 16:39 42.81983 -73.79510 30250 ft 421 kts 198°
2026-05-07 16:40 42.79063 -73.79836 29453 ft 420 kts 198°
2026-05-07 16:40 42.76188 -73.80170 29070 ft 407 kts 200°
2026-05-07 16:40 42.73494 -73.80890 28653 ft 384 kts 208°
2026-05-07 16:40 42.70980 -73.81940 28231 ft 373 kts 210°
2026-05-07 16:41 42.68545 -73.83036 27831 ft 365 kts 210°
2026-05-07 16:41 42.66162 -73.84118 27409 ft 357 kts 210°
2026-05-07 16:41 42.63829 -73.85174 27041 ft 350 kts 210°
2026-05-07 16:41 42.61569 -73.86193 26666 ft 344 kts 210°
2026-05-07 16:42 42.59273 -73.87229 26279 ft 343 kts 210°
2026-05-07 16:42 42.57002 -73.88256 25891 ft 344 kts 210°
2026-05-07 16:42 42.54755 -73.89267 25509 ft 345 kts 210°
2026-05-07 16:42 42.52479 -73.90287 25114 ft 344 kts 210°
2026-05-07 16:43 42.50216 -73.91296 24728 ft 343 kts 210°
2026-05-07 16:43 42.47950 -73.92307 24296 ft 343 kts 209°
2026-05-07 16:43 42.45685 -73.93318 23935 ft 342 kts 209°
2026-05-07 16:43 42.43423 -73.94327 23552 ft 342 kts 209°
2026-05-07 16:44 42.41165 -73.95333 23164 ft 342 kts 209°
2026-05-07 16:44 42.38907 -73.96338 22753 ft 341 kts 208°
2026-05-07 16:44 42.36652 -73.97339 22368 ft 340 kts 208°
2026-05-07 16:44 42.34407 -73.98336 21968 ft 339 kts 208°
2026-05-07 16:45 42.32177 -73.99324 21583 ft 337 kts 208°
2026-05-07 16:45 42.29954 -74.00309 21135 ft 335 kts 208°
2026-05-07 16:45 42.27744 -74.01289 20788 ft 334 kts 207°
2026-05-07 16:45 42.25538 -74.02266 20407 ft 333 kts 207°
2026-05-07 16:46 42.23349 -74.03235 20014 ft 331 kts 207°
2026-05-07 16:46 42.21162 -74.04202 19624 ft 331 kts 207°
2026-05-07 16:46 42.18980 -74.05167 19238 ft 330 kts 207°
2026-05-07 16:46 42.16802 -74.06128 18856 ft 329 kts 207°
2026-05-07 16:47 42.14634 -74.07084 18464 ft 327 kts 206°
2026-05-07 16:47 42.12475 -74.08036 18068 ft 325 kts 206°
2026-05-07 16:47 42.10331 -74.08980 17632 ft 324 kts 206°
2026-05-07 16:47 42.08221 -74.09909 17284 ft 323 kts 206°
2026-05-07 16:48 42.02362 -74.12484 16221 ft 320 kts 206°
2026-05-07 16:48 42.00250 -74.13411 15845 ft 319 kts 206°
2026-05-07 16:49 41.98152 -74.14332 15454 ft 317 kts 206°
2026-05-07 16:49 41.96061 -74.15249 15074 ft 315 kts 206°
2026-05-07 16:49 41.93980 -74.16160 14692 ft 314 kts 206°
2026-05-07 16:49 41.91907 -74.17067 14309 ft 313 kts 206°
2026-05-07 16:50 41.89844 -74.17971 13911 ft 311 kts 205°
2026-05-07 16:50 41.87787 -74.18871 13525 ft 311 kts 205°
2026-05-07 16:50 41.85733 -74.19768 13119 ft 310 kts 205°
2026-05-07 16:50 41.83687 -74.20662 12735 ft 309 kts 205°
2026-05-07 16:51 41.81640 -74.21557 12349 ft 309 kts 206°
2026-05-07 16:51 41.79595 -74.22449 11965 ft 309 kts 206°
2026-05-07 16:51 41.77551 -74.23339 11577 ft 309 kts 206°
2026-05-07 16:51 41.75531 -74.24219 11190 ft 309 kts 206°
2026-05-07 16:52 41.73490 -74.25107 10805 ft 308 kts 206°
2026-05-07 16:52 41.71489 -74.25971 10675 ft 295 kts 206°
2026-05-07 16:52 41.69579 -74.26791 10577 ft 281 kts 206°
2026-05-07 16:52 41.67761 -74.27574 10464 ft 269 kts 207°
2026-05-07 16:53 41.66016 -74.28330 10341 ft 259 kts 207°
2026-05-07 16:53 41.64329 -74.29063 10218 ft 251 kts 208°
2026-05-07 16:53 41.62695 -74.29772 10117 ft 244 kts 208°
2026-05-07 16:53 41.61084 -74.30477 10008 ft 245 kts 208°
2026-05-07 16:54 41.59461 -74.31190 9825 ft 246 kts 208°
2026-05-07 16:54 41.57834 -74.31899 9530 ft 246 kts 208°
2026-05-07 16:54 41.56206 -74.32606 9282 ft 247 kts 207°
2026-05-07 16:54 41.54569 -74.33317 9039 ft 248 kts 207°
2026-05-07 16:55 41.52927 -74.34028 8770 ft 248 kts 206°
2026-05-07 16:55 41.51286 -74.34736 8519 ft 248 kts 206°
2026-05-07 16:55 41.49643 -74.35446 8256 ft 249 kts 205°
2026-05-07 16:55 41.47990 -74.36160 7993 ft 250 kts 205°
2026-05-07 16:56 41.46328 -74.36877 7731 ft 252 kts 204°
2026-05-07 16:56 41.44657 -74.37598 7472 ft 253 kts 204°
2026-05-07 16:56 41.41273 -74.39058 7032 ft 265 kts 202°
2026-05-07 16:57 41.39484 -74.39832 7005 ft 273 kts 202°
2026-05-07 16:57 41.37696 -74.40601 7010 ft 275 kts 202°
2026-05-07 16:57 41.35877 -74.41381 7010 ft 275 kts 202°
2026-05-07 16:57 41.34057 -74.42160 6996 ft 274 kts 202°
2026-05-07 16:58 41.32243 -74.42937 7013 ft 274 kts 202°
2026-05-07 16:58 41.30426 -74.43716 7013 ft 274 kts 202°
2026-05-07 16:58 41.28609 -74.44494 7017 ft 274 kts 201°
2026-05-07 16:58 41.26730 -74.45015 6884 ft 278 kts 190°
2026-05-07 16:59 41.24792 -74.45223 6708 ft 280 kts 188°
2026-05-07 16:59 41.22852 -74.45390 6577 ft 280 kts 187°
2026-05-07 16:59 41.20908 -74.45569 6467 ft 280 kts 187°
2026-05-07 16:59 41.18966 -74.45763 6321 ft 280 kts 187°
2026-05-07 17:00 41.17019 -74.45966 6200 ft 281 kts 187°
2026-05-07 17:00 41.15075 -74.46171 6074 ft 280 kts 187°
2026-05-07 17:00 41.13135 -74.46387 6010 ft 280 kts 188°
2026-05-07 17:00 41.11194 -74.46588 6019 ft 280 kts 187°
2026-05-07 17:01 41.09247 -74.46777 6018 ft 280 kts 187°
2026-05-07 17:01 41.07303 -74.46966 6014 ft 281 kts 187°
2026-05-07 17:01 41.05358 -74.47156 6013 ft 280 kts 187°
2026-05-07 17:01 41.03412 -74.47344 5920 ft 280 kts 187°
2026-05-07 17:02 41.01470 -74.47537 5776 ft 279 kts 187°
2026-05-07 17:02 40.99532 -74.47739 5635 ft 279 kts 187°
2026-05-07 17:02 40.97598 -74.47952 5505 ft 278 kts 187°
2026-05-07 17:02 40.95679 -74.48167 5385 ft 277 kts 187°
2026-05-07 17:03 40.93758 -74.48391 5259 ft 277 kts 187°
2026-05-07 17:03 40.91851 -74.48701 5127 ft 275 kts 193°
2026-05-07 17:03 40.89992 -74.49284 5022 ft 274 kts 197°
2026-05-07 17:03 40.88175 -74.49923 4997 ft 274 kts 198°
2026-05-07 17:04 40.86307 -74.50584 5006 ft 275 kts 197°
2026-05-07 17:04 40.84487 -74.51228 4996 ft 274 kts 197°
2026-05-07 17:04 40.82626 -74.51895 4998 ft 273 kts 197°
2026-05-07 17:04 40.80792 -74.52549 4998 ft 273 kts 198°
2026-05-07 17:05 40.78957 -74.53209 5003 ft 274 kts 198°
2026-05-07 17:05 40.77107 -74.53652 4978 ft 275 kts 184°
2026-05-07 17:05 40.75191 -74.53596 4975 ft 276 kts 179°
2026-05-07 17:05 40.73264 -74.53425 4976 ft 278 kts 178°
2026-05-07 17:06 40.71338 -74.53246 4971 ft 277 kts 178°
2026-05-07 17:06 40.69416 -74.53078 4971 ft 277 kts 178°
2026-05-07 17:06 40.67493 -74.52910 4974 ft 277 kts 178°
2026-05-07 17:06 40.65572 -74.52741 4972 ft 277 kts 178°
2026-05-07 17:07 40.63648 -74.52575 4975 ft 276 kts 178°
2026-05-07 17:07 40.61732 -74.52416 4972 ft 276 kts 178°
2026-05-07 17:07 40.59816 -74.52255 4971 ft 276 kts 178°
2026-05-07 17:07 40.57898 -74.52092 4973 ft 276 kts 177°
2026-05-07 17:08 40.56039 -74.51514 4901 ft 277 kts 154°
2026-05-07 17:08 40.54553 -74.49951 4695 ft 274 kts 127°
2026-05-07 17:08 40.53511 -74.47858 4568 ft 274 kts 118°
2026-05-07 17:08 40.52575 -74.45685 4384 ft 273 kts 118°
2026-05-07 17:09 40.51663 -74.43512 4130 ft 268 kts 117°
2026-05-07 17:09 40.50772 -74.41379 3872 ft 264 kts 117°
2026-05-07 17:09 40.49896 -74.39287 3609 ft 259 kts 117°
2026-05-07 17:09 40.49258 -74.37151 3368 ft 251 kts 96°
2026-05-07 17:10 40.49442 -74.34955 3239 ft 237 kts 67°
2026-05-07 17:10 40.50132 -74.33046 3110 ft 227 kts 59°
2026-05-07 17:10 40.50902 -74.31253 2905 ft 226 kts 58°
2026-05-07 17:10 40.51686 -74.29449 2646 ft 229 kts 58°
2026-05-07 17:11 40.52536 -74.27692 2436 ft 226 kts 47°
2026-05-07 17:11 40.53697 -74.26354 2224 ft 220 kts 30°
2026-05-07 17:11 40.55041 -74.25454 2060 ft 214 kts 21°
2026-05-07 17:11 40.56355 -74.24671 1997 ft 201 kts 22°
2026-05-07 17:12 40.57583 -74.23901 2001 ft 190 kts 23°
2026-05-07 17:12 40.58737 -74.23165 2005 ft 178 kts 24°
2026-05-07 17:12 40.59858 -74.22448 1850 ft 180 kts 24°
2026-05-07 17:12 40.60979 -74.21732 1606 ft 178 kts 24°
2026-05-07 17:13 40.62065 -74.21043 1338 ft 171 kts 24°
2026-05-07 17:13 40.63096 -74.20388 1126 ft 158 kts 24°
2026-05-07 17:13 40.64043 -74.19784 908 ft 145 kts 22°
2026-05-07 17:13 40.64917 -74.19225 690 ft 135 kts 24°
2026-05-07 17:14 40.65741 -74.18693 507 ft 130 kts 22°
2026-05-07 17:14 40.66567 -74.18168 317 ft 133 kts 21°
2026-05-07 17:14 40.67402 -74.17645 144 ft 132 kts 20°
2026-05-07 17:14 40.68234 -74.17125 28 ft 131 kts 25°
2026-05-07 17:15 40.68908 -74.16693 29 ft 79 kts 26°
2026-05-07 17:15 40.69207 -74.16503 27 ft 31 kts 26°
2026-05-07 17:15 40.69322 -74.16451 28 ft 16 kts
2026-05-07 17:15 40.69436 -74.16459 28 ft 17 kts 352°
2026-05-07 17:16 40.69558 -74.16470 31 ft 10 kts 359°
2026-05-07 17:16 40.69606 -74.16513 31 ft 9 kts 302°
2026-05-07 17:16 40.69638 -74.16593 31 ft 12 kts 295°
2026-05-07 17:16 40.69675 -74.16694 31 ft 8 kts 295°
2026-05-07 17:17 40.69665 -74.16748 28 ft 6 kts 220°
2026-05-07 17:17 40.69608 -74.16790 30 ft 12 kts 206°
2026-05-07 17:17 40.69526 -74.16842 27 ft 14 kts 207°
2026-05-07 17:17 40.69435 -74.16901 26 ft 15 kts 206°
2026-05-07 17:18 40.69335 -74.16964 30 ft 17 kts 205°
2026-05-07 17:18 40.69240 -74.17024 29 ft 9 kts 206°
2026-05-07 17:18 40.69220 -74.17088 28 ft 8 kts 288°
2026-05-07 17:18 40.69247 -74.17167 28 ft 11 kts 297°
2026-05-07 17:19 40.69287 -74.17257 31 ft 12 kts 302°
2026-05-07 17:19 40.69328 -74.17357 30 ft 13 kts 292°
2026-05-07 17:19 40.69332 -74.17474 27 ft 13 kts 244°
2026-05-07 17:19 40.69277 -74.17533 31 ft 8 kts 198°
2026-05-07 17:20 40.69242 -74.17519 30 ft 3 kts 150°
2026-05-07 17:20 40.69238 -74.17516 31 ft 0 kts 151°
2026-05-07 17:20 40.69234 -74.17514 30 ft 1 kts 151°
2026-05-07 17:20 40.69232 -74.17512 30 ft 0 kts 151°